Showing default

IRIDIUM 126, 42809

Orbit data source: Space-Track

IRIDIUM 126, 42809 is a payload satellite owned by Iridium (US) in LEO that was launched on Sun, 25 Jun 2017 UTC via an FALCON 9 launch vehicle from the Air Force Western Test Range (AFWTR). Payload-class satellites include a variety of spacecraft equipped with specific instruments for various scientific and technological missions. These include communications satellites like Starlink; space stations such as the ISS; scientific satellites like the Hubble; Earth observation satellites from companies like Planet Labs, Umbra, and HawkEye 360; GPS; miniature CubeSats for education and research; and military/defense satellites.

Loading next visibility...
Identifier
42809, 2017-039G
Orbit
LEO
Country
Flag of USUS
Related business
Manufacturer
OATK SSG Gilbert
Mission
Operational Commercial Communications
Bus & Motor
ELITEBUS, Unknown motor
Mass
860 kg wet, 700 kg dry
Launch date (UTC)
2017-06-25 (8 years ago)
Launch vehicle
FALCON 9
Launch site
Air Force Western Test Range (AFWTR)
Object type
Payload
Rocket body
Debris
Shape & HBR
Trap Box + 2 Pan, 4.8 m
Radar Cross Section
10.154 m², Large (>1 m²)

Expand to show TLE details & history
Last TLE update: 8 hours ago

TLE from 8 hours ago
0 IRIDIUM 126
1 42809U 17039G   25294.54031194  .00000091  00000-0  25341-4 0  9991
2 42809  86.3920  93.4134 0002327  89.2655 270.8807 14.34219473435749
Epoch: 2025-10-21T12:58Z
TLE epoch observation values (Epoch: 2025-10-21T12:58:02.951Z)
Latitude
-0.00007°
Longitude
-131.32571°
Altitude
780.687 km
Speed
7.464 km/s
True Right ascension
06h 13m 39s
True Declination
0° 00' 00"
Sunlit
Object was in daylight at epoch
Visualization orbit readout
Latitude
Unknown
Longitude
Unknown
Altitude
Unknown
Speed
Unknown
Apparent Right ascension
Unknown
Apparent Declination
Unknown
Sunlit
N/A
Visualization observer readout
Local Sidereal Time
15:34:18
Azimuth
Unknown
Elevation
Unknown
Doppler factor
Unknown
Orbital elements
Apogee altitude
776.29 km
Perigee altitude
772.962 km
Semi-major axis
7,152.763 km
Eccentricity
0.00023
Inclination
86.392°
RAAN
93.4134°
Arg. of periapsis
89.2655°
True anomaly
270.85404°
Mean anomaly
270.8807°
Eccentric anomaly
270.86737°
Mean motion
3.58783 °/min
Orbital period
100.34 mins
BSTAR
0.000025341
Loading maneuver chart data...
Computing Atmospheric mass density...
Loading historical data...
Loading historical data...
Loading historical data...
Loading historical data...
Loading historical data...
Loading historical data...
Loading historical data...

Documentation

Showing up to 5 results
|